Hermiston, OR

5:44 AM PDT on June 25, 2017 (GMT -0700)
Hermiston Municipal

Weather History for KHRI - July, 2013

Change the Weather History Date:

Sunday, July 21, 2013

  Actual Average Record
Temperature  
Mean Temperature 82 °F 75 °F  
Max Temperature 99 °F 92 °F 108 °F (1938)
Min Temperature 66 °F 58 °F 43 °F (1929)
Cooling Degree Days 18    
Growing Degree Days 32 (Base 50)    
Moisture  
Dew Point 45 °F    
Average Humidity 30    
Maximum Humidity 49    
Minimum Humidity 14    
Precipitation  
Precipitation 0.00 in 0.01 in 0.86 in (1973)
Month to date precipitation 0.21  
Year to date precipitation 6.23  
Sea Level Pressure  
Sea Level Pressure 29.76 in    
Wind  
Wind Speed 8 mph (WSW)    
Max Wind Speed 16 mph    
Max Gust Speed 24 mph    
Visibility 10 miles    
Events      
T = Trace of Precipitation, MM = Missing Value Source: NWS Daily Summary

Daily Weather History Graph

Daily Weather History Graph

Search for Another Location

Airport or City:

Trip Planner

Search our weather history database for the weather conditions in past years. The results will help you decide how hot, cold, wet, or windy it might be!

Date:

Astronomy

Jul. 21, 2013 Rise Set
Actual Time 5:28 AM PDT 8:38 PM PDT
Civil Twilight 4:52 AM PDT 9:14 PM PDT
Nautical Twilight 4:05 AM PDT 10:00 PM PDT
Astronomical Twilight 3:08 AM PDT 10:57 PM PDT
Moon 7:37 PM PDT (7/21) 4:20 AM PDT (7/21)
Length of Visible Light 16h 22m
Length of Day
15h 10m
Waxing Gibbous, 99% of the Moon is Illuminated
Jul 21
Waxing Gibbous
Jul 22
Full
Jul 29
Last Quarter
Aug 6
New
Aug 14
First Quarter

Hourly Weather History & Observations

Time (PDT) Temp. Dew Point Humidity Pressure Visibility Wind Dir Wind Speed Gust Speed Precip Events Conditions
12:53 AM 73.9 °F 51.1 °F 45% 29.77 in 10.0 mi WSW 9.2 mph - N/A   Clear
1:53 AM 72.0 °F 50.0 °F 46% 29.78 in 10.0 mi West 9.2 mph - N/A   Clear
2:53 AM 69.1 °F 48.9 °F 49% 29.78 in 10.0 mi WSW 3.5 mph - N/A   Clear
3:53 AM 68.0 °F 43.0 °F 40% 29.78 in 10.0 mi SW 4.6 mph - N/A   Clear
4:53 AM 68.0 °F 41.0 °F 37% 29.79 in 10.0 mi SW 6.9 mph - N/A   Clear
5:53 AM 66.0 °F 39.9 °F 38% 29.80 in 10.0 mi SSW 6.9 mph - N/A   Clear
6:53 AM 66.0 °F 44.1 °F 45% 29.81 in 10.0 mi ESE 3.5 mph - N/A   Clear
7:53 AM 73.9 °F 42.1 °F 32% 29.82 in 10.0 mi SSW 6.9 mph - N/A   Clear
8:53 AM 75.9 °F 46.0 °F 35% 29.82 in 10.0 mi WNW 9.2 mph - N/A   Clear
9:53 AM 82.0 °F 39.9 °F 22% 29.81 in 10.0 mi West 13.8 mph - N/A   Clear
10:53 AM 84.0 °F 44.1 °F 25% 29.80 in 10.0 mi WSW 11.5 mph 20.7 mph N/A   Clear
11:53 AM 88.0 °F 46.0 °F 23% 29.78 in 10.0 mi WSW 10.4 mph 19.6 mph N/A   Clear
12:53 PM 91.9 °F 44.1 °F 19% 29.76 in 10.0 mi WSW 16.1 mph 24.2 mph N/A   Clear
1:53 PM 93.9 °F 42.1 °F 17% 29.75 in 10.0 mi West 10.4 mph 17.3 mph N/A   Clear
2:53 PM 96.1 °F 39.9 °F 14% 29.73 in 10.0 mi NW 9.2 mph - N/A   Clear
3:53 PM 97.0 °F 41.0 °F 14% 29.72 in 10.0 mi WSW 5.8 mph - N/A   Clear
4:53 PM 97.0 °F 39.9 °F 14% 29.70 in 10.0 mi Variable 3.5 mph - N/A   Clear
5:53 PM 99.0 °F 41.0 °F 14% 29.68 in 10.0 mi Variable 6.9 mph - N/A   Clear
6:53 PM 98.1 °F 41.0 °F 14% 29.68 in 10.0 mi WSW 8.1 mph - N/A   Clear
7:53 PM 91.9 °F 46.0 °F 21% 29.68 in 10.0 mi WSW 5.8 mph - N/A   Clear
8:53 PM 84.0 °F 51.1 °F 32% 29.70 in 10.0 mi SW 10.4 mph - N/A   Clear
9:53 PM 79.0 °F 52.0 °F 39% 29.72 in 10.0 mi SW 10.4 mph - N/A   Clear
10:53 PM 79.0 °F 51.1 °F 38% 29.73 in 10.0 mi SSW 9.2 mph - N/A   Clear
11:53 PM 77.0 °F 51.1 °F 40% 29.73 in 10.0 mi SW 11.5 mph - N/A   Clear